time_stamp(utc),avg(mph),gust(mph),direction(deg),12m_air_temp(f),sonic_u(cm/s),sonic_v(cm/s),sonic_w(cm/s),pressure,2m_air_temp(f),pyranometer(W/m^2)
"2018-12-14 00:02:07+00",8.5,8.5,,45.5,368,73,21,1028.09,41.1,0
"2018-12-14 00:07:07+00",9.0,10.0,,45.5,395,56,23,1028.15,40.8,0
"2018-12-14 00:12:07+00",9.2,9.2,,45.5,405,12,23,1028.14,40.5,0
"2018-12-14 00:17:07+00",8.3,9.3,,45.3,366,2,20,1028.22,40.2,0
"2018-12-14 00:22:07+00",8.0,8.0,,45,352,19,19,1028.36,40.1,0
"2018-12-14 00:27:07+00",8.1,8.1,,45,359,5,19,1028.28,40,0
"2018-12-14 00:32:07+00",8.3,8.3,,45,361,10,20,1028.36,39.9,0
"2018-12-14 00:37:07+00",8.1,8.1,,45,356,35,22,1028.38,39.7,0
"2018-12-14 00:42:07+00",8.0,8.0,,45.1,347,42,22,1028.48,39.5,0
"2018-12-14 00:47:07+00",7.9,8.9,,45,343,48,25,1028.41,39.2,0
"2018-12-14 00:52:07+00",7.0,7.0,,44.5,296,63,19,1028.48,38.8,0
"2018-12-14 00:57:07+00",5.2,5.2,,43.7,214,75,10,1028.6,38.4,0
"2018-12-14 01:02:07+00",5.5,5.5,,43.4,208,107,8,1028.66,38.5,0
"2018-12-14 01:07:07+00",6.2,6.2,,43.5,229,132,15,1028.64,39.1,0
"2018-12-14 01:12:07+00",6.9,7.9,,43.3,246,164,10,1028.63,39.2,0
"2018-12-14 01:17:07+00",7.2,8.2,,43.8,282,138,15,1028.63,39.1,0
"2018-12-14 01:22:07+00",6.5,7.5,,43.8,244,139,13,1028.74,39.1,0
"2018-12-14 01:27:07+00",6.9,7.9,,43.4,248,160,14,1028.66,39.2,0
"2018-12-14 01:32:07+00",7.5,7.5,,43.6,280,167,17,1028.73,39.1,0
"2018-12-14 01:37:07+00",7.0,7.0,,43.3,254,162,14,1028.74,38.9,0
"2018-12-14 01:42:07+00",7.3,7.3,,43.1,269,159,15,1028.7,38.8,0
"2018-12-14 01:47:07+00",7.6,7.6,,44.3,287,169,15,1028.71,38.7,0
"2018-12-14 01:52:07+00",7.8,8.8,,44.5,293,171,17,1028.75,38,0
"2018-12-14 01:57:07+00",7.8,8.8,,44.3,300,156,18,1028.79,37.3,0
"2018-12-14 02:02:07+00",8.5,8.5,,43.9,309,199,18,1028.66,36.7,0
"2018-12-14 02:07:07+00",9.2,10.2,,43.7,346,211,22,1028.68,36.3,0
"2018-12-14 02:12:07+00",9.1,9.1,,43.6,348,200,21,1028.69,36.1,0
"2018-12-14 02:17:07+00",9.8,9.8,,43.4,356,234,23,1028.67,35.9,0
"2018-12-14 02:22:07+00",9.5,9.5,,42.8,350,224,22,1028.63,35.9,0
"2018-12-14 02:27:07+00",9.1,10.1,,43,352,189,25,1028.56,35.8,0
"2018-12-14 02:32:07+00",9.8,9.8,,42.9,377,198,28,1028.6,35.7,0
"2018-12-14 02:37:07+00",9.8,9.8,,43.2,380,203,28,1028.7,35.8,0
"2018-12-14 02:42:07+00",9.7,10.7,,43.1,378,193,25,1028.68,35.8,0
"2018-12-14 02:47:07+00",8.6,8.6,,43.3,353,152,3,1028.77,36,0
"2018-12-14 02:52:07+00",9.0,10.0,,43.9,376,146,14,1028.68,36.2,0
"2018-12-14 02:57:07+00",8.9,9.9,,43.9,379,141,21,1028.61,36.4,0
"2018-12-14 03:02:07+00",9.2,10.2,,43.6,399,82,20,1028.65,36.8,0
"2018-12-14 03:07:07+00",9.8,10.8,,44.4,434,34,28,1028.59,37.8,0
"2018-12-14 03:12:07+00",11.3,12.3,,45.1,501,47,28,1028.57,40,0
"2018-12-14 03:17:07+00",11.5,12.5,,45.2,511,34,28,1028.48,41.1,0
"2018-12-14 03:22:07+00",11.6,12.6,,45.2,511,22,27,1028.46,41.6,0
"2018-12-14 03:27:07+00",11.8,12.8,,45.2,524,34,25,1028.44,42,0
"2018-12-14 03:32:07+00",11.1,12.1,,45.2,499,-1,18,1028.44,42.2,0
"2018-12-14 03:37:07+00",10.1,12.1,,45.2,451,-22,20,1028.67,42.3,0
"2018-12-14 03:42:07+00",10.5,11.5,,45.3,467,-27,22,1028.61,42.3,0
"2018-12-14 03:47:07+00",10.8,11.8,,45.4,473,-32,24,1028.63,42.3,0
"2018-12-14 03:52:07+00",11.0,13.0,,45.5,492,-20,26,1028.76,42.4,0
"2018-12-14 03:57:07+00",10.5,11.5,,45.4,465,-35,17,1028.72,42.4,0
"2018-12-14 04:02:07+00",9.3,10.3,,45.4,415,-69,10,1028.94,42.5,0
"2018-12-14 04:07:07+00",11.2,12.2,,45.5,497,-35,23,1028.78,42.3,0
"2018-12-14 04:12:07+00",11.4,12.4,,45.4,510,-3,25,1028.8,42.2,0
"2018-12-14 04:17:07+00",10.0,11.0,,45.4,443,24,27,1028.8,42.3,0
"2018-12-14 04:22:07+00",9.4,10.4,,45.2,418,1,18,1028.82,42.2,0
"2018-12-14 04:27:07+00",8.8,9.8,,45.3,391,-44,9,1028.89,42.3,0
"2018-12-14 04:32:07+00",8.8,9.8,,45.3,383,-42,18,1028.94,42.3,0
"2018-12-14 04:37:07+00",10.1,11.1,,45.3,444,-21,25,1028.82,42,0
"2018-12-14 04:42:07+00",8.8,9.8,,45.3,385,-36,19,1028.94,41.9,0
"2018-12-14 04:47:07+00",8.9,9.9,,45.3,389,-37,15,1028.81,41.9,0
"2018-12-14 04:52:07+00",11.1,12.1,,45.5,493,-15,24,1028.75,41.7,0
"2018-12-14 04:57:07+00",10.4,10.4,,45.4,456,-31,21,1028.76,41.7,0
"2018-12-14 05:02:07+00",9.1,10.1,,45.2,402,-63,15,1028.82,41.9,0
"2018-12-14 05:07:07+00",9.9,10.9,,45.4,433,-85,14,1028.82,42.3,0
"2018-12-14 05:12:07+00",9.5,10.5,,45.6,399,-130,3,1028.83,42.7,0
"2018-12-14 05:17:07+00",10.2,11.2,,45.7,438,-96,13,1028.8,42.8,0
"2018-12-14 05:22:07+00",9.6,10.6,,45.7,418,-82,12,1028.83,42.9,0
"2018-12-14 05:27:07+00",10.2,11.2,,45.9,435,-110,9,1028.73,43.3,0
"2018-12-14 05:32:07+00",10.5,11.5,,45.9,461,-72,15,1028.8,43.4,0
"2018-12-14 05:37:07+00",10.1,11.1,,45.9,450,-37,23,1028.77,43.4,0
"2018-12-14 05:42:07+00",9.5,11.5,,45.9,419,-57,5,1028.85,43.7,0
"2018-12-14 05:47:07+00",10.6,11.6,,46,473,-25,23,1028.78,43.7,0
"2018-12-14 05:52:07+00",11.2,12.2,,45.9,498,-40,18,1028.67,43.7,0
"2018-12-14 05:57:07+00",10.9,12.9,,45.9,485,-68,19,1028.68,43.8,0
"2018-12-14 06:02:07+00",12.5,14.5,,46,553,-54,16,1028.37,43.9,0
"2018-12-14 06:07:07+00",11.9,13.9,,45.9,534,-45,21,1028.36,43.8,0
"2018-12-14 06:12:07+00",10.7,11.7,,45.8,472,-67,16,1028.48,43.7,0
"2018-12-14 06:17:07+00",10.7,12.7,,45.9,461,-105,9,1028.5,43.8,0
"2018-12-14 06:22:07+00",10.6,11.6,,45.9,453,-117,8,1028.61,43.7,0
"2018-12-14 06:27:07+00",11.7,12.7,,45.9,509,-99,11,1028.52,43.6,0
"2018-12-14 06:32:07+00",11.1,13.1,,45.9,480,-111,11,1028.52,43.6,0
"2018-12-14 06:37:07+00",10.7,11.7,,45.9,464,-110,7,1028.57,43.6,0
"2018-12-14 06:42:07+00",11.0,12.0,,46,479,-93,16,1028.62,43.6,0
"2018-12-14 06:47:07+00",11.7,12.7,,45.9,515,-89,9,1028.51,43.6,0
"2018-12-14 06:52:07+00",12.2,13.2,,45.9,532,-75,17,1028.52,43.7,0
"2018-12-14 06:57:07+00",11.6,12.6,,46,524,-65,10,1028.6,43.8,0
"2018-12-14 07:02:07+00",11.1,12.1,,46,486,-80,17,1028.62,44,0
"2018-12-14 07:07:07+00",11.5,13.5,,46.1,506,-71,16,1028.69,44.1,0
"2018-12-14 07:12:07+00",10.5,12.5,,46.2,467,-29,23,1028.81,44.2,0
"2018-12-14 07:17:07+00",10.7,11.7,,46.3,464,-71,14,1028.96,44.5,0
"2018-12-14 07:22:07+00",11.7,12.7,,46.4,517,-87,14,1028.86,44.6,0
"2018-12-14 07:27:07+00",11.1,12.1,,46.4,495,-61,12,1028.9,44.7,0
"2018-12-14 07:32:07+00",12.2,14.2,,46.4,541,-65,14,1028.65,44.7,0
"2018-12-14 07:37:07+00",10.1,12.1,,46.4,451,-51,22,1028.75,44.7,0
"2018-12-14 07:42:07+00",10.6,12.6,,46.4,477,-73,10,1028.81,44.8,0
"2018-12-14 07:47:07+00",10.5,12.5,,46.4,469,-35,18,1028.72,44.8,0
"2018-12-14 07:52:07+00",11.1,12.1,,46.3,497,-27,22,1028.72,44.6,0
"2018-12-14 07:57:07+00",9.6,10.6,,46.2,425,-44,18,1028.83,44.5,0
"2018-12-14 08:02:07+00",9.7,10.7,,46.2,435,-5,20,1028.99,44.3,0
"2018-12-14 08:07:07+00",9.5,10.5,,46.2,424,-17,19,1028.95,44.3,0
"2018-12-14 08:12:07+00",8.3,9.3,,46.1,366,-44,12,1028.99,44.3,0
"2018-12-14 08:17:07+00",8.8,9.8,,46,388,-29,17,1029.02,44.2,0
"2018-12-14 08:22:07+00",8.6,9.6,,46,379,-25,17,1029.02,44.2,0
"2018-12-14 08:27:07+00",9.7,10.7,,46,420,-52,16,1028.88,44.1,0
"2018-12-14 08:32:07+00",9.7,10.7,,46.1,416,-108,6,1029,44.4,0
"2018-12-14 08:37:07+00",8.3,9.3,,46.2,357,-98,6,1029.05,44.5,0
"2018-12-14 08:42:07+00",9.3,10.3,,46.2,402,-77,13,1028.92,44.5,0
"2018-12-14 08:47:07+00",10.4,11.4,,46.1,453,-55,19,1028.83,44.3,0
"2018-12-14 08:52:07+00",11.3,12.3,,45.9,498,-34,22,1028.63,44.2,0
"2018-12-14 08:57:07+00",12.4,13.4,,46,555,-15,22,1028.44,44.3,0
"2018-12-14 09:02:07+00",12.9,14.9,,46.1,570,-34,21,1028.25,44.5,0
"2018-12-14 09:07:07+00",10.2,11.2,,46.1,452,-55,27,1028.3,44.7,0
"2018-12-14 09:12:07+00",12.9,13.9,,46.1,576,15,35,1028.05,44.6,0
"2018-12-14 09:17:07+00",12.2,14.2,,45.9,542,-42,25,1027.94,44.4,0
"2018-12-14 09:22:07+00",12.8,15.8,,45.9,581,-55,35,1027.71,44.3,0
"2018-12-14 09:27:07+00",11.9,13.9,,45.9,525,-32,19,1027.81,44.3,0
"2018-12-14 09:32:07+00",9.1,11.1,,45.7,409,-20,19,1028.09,44.1,0
"2018-12-14 09:37:07+00",9.7,11.7,,45.8,428,-15,20,1028.12,43.9,0
"2018-12-14 09:42:07+00",10.1,12.1,,45.9,446,-11,31,1028.08,43.7,0
"2018-12-14 09:47:07+00",10.0,11.0,,45.8,442,-43,20,1028.13,43.6,0
"2018-12-14 09:52:07+00",9.7,10.7,,45.7,421,-83,7,1028.26,43.7,0
"2018-12-14 09:57:07+00",9.3,10.3,,45.7,401,-89,8,1028.24,43.8,0
"2018-12-14 10:02:07+00",9.9,10.9,,45.9,424,-92,12,1028.23,43.7,0
"2018-12-14 10:07:07+00",10.2,11.2,,45.9,444,-80,14,1028.23,43.6,0
"2018-12-14 10:12:07+00",9.6,10.6,,45.8,427,-50,19,1028.26,43.4,0
"2018-12-14 10:17:07+00",10.1,11.1,,45.9,440,-84,15,1028.33,43.5,0
"2018-12-14 10:22:07+00",10.8,11.8,,46,476,-93,11,1028.29,43.4,0
"2018-12-14 10:27:07+00",9.8,10.8,,45.8,425,-59,15,1028.38,43.4,0
"2018-12-14 10:32:07+00",9.5,10.5,,45.7,412,-79,11,1028.41,43.2,0
"2018-12-14 10:37:07+00",9.5,10.5,,45.8,401,-117,6,1028.58,43.2,0
"2018-12-14 10:42:07+00",9.4,10.4,,45.8,405,-115,7,1028.41,43.2,0
"2018-12-14 10:47:07+00",8.7,9.7,,45.7,368,-103,6,1028.55,43.1,0
"2018-12-14 10:52:07+00",8.6,9.6,,45.7,359,-119,3,1028.59,43,0
"2018-12-14 10:57:07+00",9.0,10.0,,45.7,378,-126,3,1028.55,42.9,0
"2018-12-14 11:02:07+00",9.5,10.5,,45.6,400,-123,8,1028.55,42.8,0
"2018-12-14 11:07:07+00",9.3,10.3,,45.5,380,-140,8,1028.53,42.9,0
"2018-12-14 11:12:07+00",9.7,10.7,,45.6,403,-162,8,1028.64,43.1,0
"2018-12-14 11:17:07+00",9.8,10.8,,45.6,423,-108,10,1028.61,43.2,0
"2018-12-14 11:22:07+00",10.1,11.1,,45.7,439,-108,12,1028.53,43.1,0
"2018-12-14 11:27:07+00",10.3,11.3,,45.7,442,-97,11,1028.55,43,0
"2018-12-14 11:32:07+00",9.9,10.9,,45.7,427,-125,7,1028.47,43.2,0
"2018-12-14 11:37:07+00",9.8,10.8,,45.7,429,-98,13,1028.51,43.2,0
"2018-12-14 11:42:07+00",8.6,9.6,,45.4,378,-32,14,1028.71,43,0
"2018-12-14 11:47:07+00",8.2,9.2,,45.3,359,-29,21,1028.8,42.8,0
"2018-12-14 11:52:07+00",9.2,10.2,,45.3,406,-29,18,1028.87,42.5,0
"2018-12-14 11:57:07+00",8.4,8.4,,45.2,371,-31,16,1029.02,42.4,0
"2018-12-14 12:02:07+00",8.7,9.7,,45.3,385,-32,18,1029.06,42.2,0
"2018-12-14 12:07:07+00",8.0,9.0,,45.3,350,-48,15,1029.21,42.1,0
"2018-12-14 12:12:07+00",7.2,7.2,,45.2,310,-44,16,1029.32,42.1,0
"2018-12-14 12:17:07+00",6.9,7.9,,45.2,297,-56,13,1029.32,42,0
"2018-12-14 12:22:07+00",7.3,7.3,,45.4,312,-58,12,1029.33,41.8,0
"2018-12-14 12:27:07+00",7.6,7.6,,45.5,321,-85,11,1029.43,41.6,0
"2018-12-14 12:32:07+00",7.6,7.6,,45.6,319,-104,5,1029.51,41.8,0
"2018-12-14 12:37:07+00",8.4,8.4,,45.8,361,-82,13,1029.41,41.6,0
"2018-12-14 12:42:07+00",7.1,8.1,,45.4,305,-85,0,1029.52,42.1,0.2
"2018-12-14 12:47:07+00",9.6,10.6,,45.7,414,-79,15,1029.43,42.6,0.1
"2018-12-14 12:52:07+00",11.0,12.0,,46.2,485,-84,17,1029.22,43.4,6.8
"2018-12-14 12:57:07+00",10.9,11.9,,46.4,482,-66,14,1029.22,44.3,37.4
"2018-12-14 13:02:07+00",10.8,12.8,,46.7,461,-110,12,1029.3,45,40.4
"2018-12-14 13:07:07+00",9.8,10.8,,46.7,418,-105,10,1029.33,45.1,26.6
"2018-12-14 13:12:07+00",9.0,10.0,,46.6,390,-89,9,1029.36,45.3,110.7
"2018-12-14 13:17:07+00",9.4,10.4,,47,403,-117,2,1029.35,45.9,124.9
"2018-12-14 13:22:07+00",9.0,10.0,,47.3,375,-137,-8,1029.48,46.4,49.7
"2018-12-14 13:27:07+00",8.9,9.9,,47.4,364,-129,1,1029.63,46.7,93
"2018-12-14 13:32:07+00",8.3,10.3,,47.4,327,-150,-2,1029.8,46.9,52.1
"2018-12-14 13:37:07+00",7.5,8.5,,47.4,306,-109,11,1029.95,47,42.4
"2018-12-14 13:42:07+00",9.9,10.9,,47.4,408,-150,-6,1029.77,47.1,52.3
"2018-12-14 13:47:07+00",8.4,9.4,,47.6,356,-92,15,1029.91,47.4,120.4
"2018-12-14 13:52:07+00",9.2,10.2,,48,380,-118,-14,1030.05,47.9,79.6
"2018-12-14 13:57:07+00",7.8,9.8,,48.1,328,-120,15,1030.12,48.2,95.2
"2018-12-14 14:02:07+00",9.9,10.9,,48.1,407,-144,-7,1030.14,48.3,80.6
"2018-12-14 14:07:07+00",9.5,11.5,,48.2,389,-145,4,1030.03,48.5,156.3
"2018-12-14 14:12:07+00",9.9,12.9,,48.5,403,-167,7,1030.07,49,128
"2018-12-14 14:17:07+00",9.5,10.5,,48.7,376,-175,9,1030.14,49.3,139.4
"2018-12-14 14:22:07+00",8.9,9.9,,48.7,360,-173,15,1030.1,49.5,92.9
"2018-12-14 14:27:07+00",10.2,11.2,,48.6,404,-222,-16,1030.08,49.5,124.9
"2018-12-14 14:32:07+00",10.0,11.0,,48.6,404,-189,8,1030.22,49.5,128
"2018-12-14 14:37:07+00",9.6,11.6,,49,383,-183,-3,1030,50,208.6
"2018-12-14 14:42:07+00",10.9,12.9,,49.2,437,-221,-7,1030.03,50.4,216
"2018-12-14 14:47:07+00",12.8,14.8,,49.3,510,-248,-12,1029.91,50.6,153.8
"2018-12-14 14:52:07+00",11.0,14.0,,49.2,427,-235,-1,1029.91,50.2,86.3
"2018-12-14 14:57:07+00",10.3,11.3,,48.9,419,-170,-5,1029.79,49.9,81.8
"2018-12-14 15:02:07+00",10.5,12.5,,48.6,433,-153,13,1029.66,49.5,77
"2018-12-14 15:07:07+00",10.1,12.1,,48.5,417,-158,-6,1029.74,49.2,71
"2018-12-14 15:12:07+00",10.0,12.0,,48.5,421,-128,6,1029.68,49.1,70.1
"2018-12-14 15:17:07+00",10.0,12.0,,48.5,420,-111,-7,1029.61,48.9,81.2
"2018-12-14 15:22:07+00",9.3,10.3,,48.5,387,-150,9,1029.52,49,90.3
"2018-12-14 15:27:07+00",9.2,10.2,,48.6,386,-141,17,1029.61,49.1,108.8
"2018-12-14 15:32:07+00",10.1,12.1,,48.6,417,-144,3,1029.31,49.3,94.9
"2018-12-14 15:37:07+00",9.5,10.5,,48.6,394,-165,5,1029.26,49.3,88.4
"2018-12-14 15:42:07+00",8.7,10.7,,48.6,373,-94,20,1029.19,49.3,100.2
"2018-12-14 15:47:07+00",9.6,12.6,,48.6,407,-141,-7,1029.09,49.3,115.2
"2018-12-14 15:52:07+00",9.9,11.9,,48.8,414,-155,11,1028.92,49.5,111
"2018-12-14 15:57:07+00",10.6,12.6,,48.8,447,-139,2,1028.66,49.6,129.7
"2018-12-14 16:02:07+00",10.7,12.7,,48.8,456,-149,-3,1028.45,49.6,122.3
"2018-12-14 16:07:07+00",10.7,13.7,,48.9,446,-167,-3,1028.26,49.5,96.3
"2018-12-14 16:12:07+00",10.7,12.7,,48.8,441,-162,-10,1028.25,49.5,99.1
"2018-12-14 16:17:07+00",8.7,10.7,,48.7,355,-155,7,1028.3,49.5,101.1
"2018-12-14 16:22:07+00",8.0,10.0,,48.8,310,-160,12,1028.33,49.6,91.5
"2018-12-14 16:27:07+00",9.4,10.4,,48.7,364,-200,15,1028.16,49.6,97.1
"2018-12-14 16:32:07+00",9.1,11.1,,48.5,366,-166,10,1028.06,49.5,96.6
"2018-12-14 16:37:07+00",9.0,10.0,,48.6,362,-162,4,1027.97,49.5,90.8
"2018-12-14 16:42:07+00",8.8,9.8,,48.6,350,-150,21,1027.79,49.4,86.7
"2018-12-14 16:47:07+00",9.9,13.9,,48.6,403,-191,-4,1027.6,49.4,81.6
"2018-12-14 16:52:07+00",9.0,11.0,,48.5,365,-145,3,1027.52,49.3,81.9
"2018-12-14 16:57:07+00",9.2,11.2,,48.5,379,-145,-4,1027.43,49.3,83.6
"2018-12-14 17:02:07+00",9.4,10.4,,48.5,379,-159,-18,1027.36,49.3,79.9
"2018-12-14 17:07:07+00",9.2,11.2,,48.5,368,-171,-9,1027.27,49.3,81.1
"2018-12-14 17:12:07+00",9.7,10.7,,48.5,400,-149,-16,1027.1,49.3,78.5
"2018-12-14 17:17:07+00",8.6,10.6,,48.6,358,-147,14,1027.06,49.2,74.7
"2018-12-14 17:22:07+00",8.3,10.3,,48.6,342,-131,-3,1027.03,49.3,71.5
"2018-12-14 17:27:07+00",7.2,8.2,,48.6,313,-86,25,1027.14,49.3,67.5
"2018-12-14 17:32:07+00",7.7,8.7,,48.6,334,-76,16,1027.31,49.3,63.2
"2018-12-14 17:37:07+00",7.5,8.5,,48.6,313,-85,9,1027.26,49.3,59.1
"2018-12-14 17:42:07+00",7.7,8.7,,48.7,317,-106,14,1027.25,49.2,59
"2018-12-14 17:47:07+00",9.0,9.0,,48.7,365,-147,-12,1027.32,49.2,54.1
"2018-12-14 17:52:07+00",8.9,9.9,,48.6,358,-165,-4,1027.12,49.2,59.1
"2018-12-14 17:57:07+00",9.2,10.2,,48.6,372,-165,-7,1027.06,49.2,59.8
"2018-12-14 18:02:07+00",8.0,9.0,,48.6,302,-170,2,1027.07,49.3,63.5
"2018-12-14 18:07:07+00",8.9,9.9,,48.7,328,-199,13,1026.9,49.4,66.8
"2018-12-14 18:12:07+00",9.4,10.4,,48.7,359,-205,14,1026.78,49.4,66.8
"2018-12-14 18:17:07+00",8.9,9.9,,48.6,359,-163,4,1026.67,49.3,63.2
"2018-12-14 18:22:07+00",8.4,10.4,,48.6,317,-175,11,1026.55,49.3,64.8
"2018-12-14 18:27:07+00",7.9,8.9,,48.6,276,-188,3,1026.6,49.4,60.7
"2018-12-14 18:32:07+00",8.0,9.0,,48.6,301,-176,2,1026.54,49.4,56.7
"2018-12-14 18:37:07+00",8.6,10.6,,48.5,333,-171,13,1026.53,49.3,51.1
"2018-12-14 18:42:07+00",7.0,7.0,,48.5,271,-146,21,1026.62,49.2,46.5
"2018-12-14 18:47:07+00",7.8,9.8,,48.5,310,-144,14,1026.6,49.2,40.1
"2018-12-14 18:52:07+00",6.5,7.5,,48.6,263,-109,16,1026.59,49.2,35.8
"2018-12-14 18:57:07+00",7.1,8.1,,48.5,294,-96,-6,1026.56,49.1,35.1
"2018-12-14 19:02:07+00",6.7,7.7,,48.5,278,-93,0,1026.55,49,34.6
"2018-12-14 19:07:07+00",6.5,7.5,,48.6,270,-93,-4,1026.6,49.1,29.8
"2018-12-14 19:12:07+00",6.3,7.3,,48.6,250,-95,14,1026.49,49.1,25.8
"2018-12-14 19:17:07+00",6.0,7.0,,48.6,248,-98,13,1026.5,49.1,19.5
"2018-12-14 19:22:07+00",4.1,5.1,,48.5,169,-45,-1,1026.58,49,16.5
"2018-12-14 19:27:07+00",0.0,0.0,,48.6,33,5,12,1026.63,49.1,14.9
"2018-12-14 19:32:07+00",0.0,0.0,,48.7,30,16,3,1026.46,49.2,11.7
"2018-12-14 19:37:07+00",2.5,2.5,,48.7,88,38,26,1026.49,49.3,8.4
"2018-12-14 19:42:07+00",2.5,2.5,,48.7,104,-12,15,1026.45,49.2,7.1
"2018-12-14 19:47:07+00",0.0,0.0,,48.7,-18,29,10,1026.5,49.3,4
"2018-12-14 19:52:07+00",0.0,0.0,,48.8,-32,5,1,1026.49,49.3,1.5
"2018-12-14 19:57:07+00",0.0,0.0,,48.8,27,13,-8,1026.64,49.3,0.3
"2018-12-14 20:02:07+00",0.8,1.8,,49,13,-27,-1,1026.7,49.3,0.2
"2018-12-14 20:07:07+00",0.0,0.0,,49,62,26,1,1026.54,49.3,0
"2018-12-14 20:12:07+00",0.0,0.0,,49,41,46,2,1026.51,49.3,0
"2018-12-14 20:17:07+00",3.8,3.8,,49,95,113,-1,1026.45,49.2,0
"2018-12-14 20:22:07+00",5.6,6.6,,48.8,54,223,-1,1026.49,49,0
"2018-12-14 20:27:07+00",5.9,6.9,,48.5,56,237,1,1026.54,48.7,0
"2018-12-14 20:32:07+00",5.5,7.5,,48.2,62,217,6,1026.55,48.4,0
"2018-12-14 20:37:07+00",6.2,7.2,,48,81,234,-3,1026.49,48.2,0
"2018-12-14 20:42:07+00",6.7,7.7,,47.9,79,262,3,1026.38,47.9,0
"2018-12-14 20:47:07+00",5.5,6.5,,48.1,49,225,10,1026.45,47.8,0
"2018-12-14 20:52:07+00",5.2,6.2,,48,44,194,-1,1026.43,47.8,0
"2018-12-14 20:57:07+00",6.3,7.3,,47.9,113,233,-2,1026.34,47.7,0
"2018-12-14 21:02:07+00",5.6,6.6,,48,75,222,5,1026.47,47.7,0
"2018-12-14 21:07:07+00",6.5,7.5,,48.1,109,244,1,1026.62,47.7,0
"2018-12-14 21:12:07+00",5.9,6.9,,48.1,78,228,2,1026.46,47.7,0
"2018-12-14 21:17:07+00",6.4,7.4,,48.1,124,236,-1,1026.49,47.7,0
"2018-12-14 21:22:07+00",6.5,7.5,,47.9,170,187,0,1026.38,47.4,0
"2018-12-14 21:27:07+00",5.8,6.8,,47.6,182,154,12,1026.39,47,0
"2018-12-14 21:32:07+00",5.9,6.9,,47.5,202,147,11,1026.31,46.8,0
"2018-12-14 21:37:07+00",6.1,6.1,,47.5,204,156,11,1026.32,46.7,0
"2018-12-14 21:42:07+00",6.0,7.0,,47.3,219,137,15,1026.25,46.6,0
"2018-12-14 21:47:07+00",6.8,7.8,,47,250,154,17,1026.22,46.4,0
"2018-12-14 21:52:07+00",7.7,8.7,,46.8,279,186,19,1026.1,46.3,0
"2018-12-14 21:57:07+00",8.3,9.3,,46.6,294,204,21,1025.99,46.1,0
"2018-12-14 22:02:07+00",8.8,9.8,,46.3,303,227,17,1026.02,45.9,0
"2018-12-14 22:07:07+00",9.1,10.1,,46.1,333,220,25,1025.87,45.7,0
"2018-12-14 22:12:07+00",8.9,9.9,,46.1,321,212,24,1025.83,45.5,0
"2018-12-14 22:17:07+00",8.6,9.6,,46,318,204,22,1025.69,45.5,0
"2018-12-14 22:22:07+00",8.3,9.3,,46,287,212,19,1025.64,45.4,0
"2018-12-14 22:27:07+00",7.6,8.6,,45.9,222,215,9,1025.66,45.3,0
"2018-12-14 22:32:07+00",8.6,9.6,,45.7,244,251,5,1025.55,45.2,0
"2018-12-14 22:37:07+00",8.7,9.7,,45.7,244,252,2,1025.6,45.1,0
"2018-12-14 22:42:07+00",8.2,9.2,,45.7,235,233,3,1025.67,45.1,0
"2018-12-14 22:47:07+00",7.5,8.5,,45.8,201,222,6,1025.71,45.1,0
"2018-12-14 22:52:07+00",8.3,9.3,,45.8,223,243,6,1025.73,45.1,0
"2018-12-14 22:57:07+00",8.6,9.6,,45.9,228,258,5,1025.77,45.1,0
"2018-12-14 23:02:07+00",8.2,9.2,,45.9,219,249,9,1025.78,45.1,0
"2018-12-14 23:07:07+00",8.1,9.1,,45.8,207,260,10,1025.87,45.1,0
"2018-12-14 23:12:07+00",8.0,9.0,,45.7,204,257,5,1025.88,45,0
"2018-12-14 23:17:07+00",8.8,9.8,,45.5,228,270,8,1025.84,44.8,0
"2018-12-14 23:22:07+00",9.6,10.6,,45.2,259,287,4,1025.91,44.7,0
"2018-12-14 23:27:07+00",8.9,9.9,,45.1,255,258,-1,1025.77,44.6,0
"2018-12-14 23:32:07+00",8.5,8.5,,45,250,241,8,1025.77,44.4,0
"2018-12-14 23:37:07+00",8.9,10.9,,45.2,291,238,14,1025.7,44.5,0
"2018-12-14 23:42:07+00",8.5,9.5,,45.5,295,215,14,1025.62,44.6,0
"2018-12-14 23:47:07+00",8.4,10.4,,45.5,307,196,22,1025.61,44.8,0
"2018-12-14 23:52:07+00",9.3,10.3,,45.4,337,226,20,1025.63,44.8,0
"2018-12-14 23:57:07+00",8.4,9.4,,45,291,217,15,1025.66,44.6,0
